Location: Binningen
(47.7924°N, 8.7261°E)
Time: 09:07:35
(UTC+00:00)

ERBS - Pass Details

Date: 17 May 2021
Orbit: 399 x 417 km, 57.0° (Epoch: 15 June)

Event Time Altitude Azimuth Distance (km) Brightness Sun altitude
Rises 21:23:59 0° 301° (WNW) 2,352 7.1 -17.7°
Reaches altitude 10° 21:26:11 10° 291° (WNW) 1,489 5.7 -17.9°
Maximum altitude 21:29:11 32° 227° (SW) 741 3.3 -18.1°
Enters shadow 21:29:18 32° 222° (SW) 742 3.3 -18.1°
